Starlink 30853

operational
NORAD ID: 58236 Int'l Des: 2023-171 Owner: SPXS Country: US Constellation: starlink
LEOCIRCULAR

关于 Starlink 30853

正在加载描述...

实时位置

正在加载3D地球...

即将过境

高度历史

Altitude vs Time

uPlot chart will show altitude changes over time

两行轨道根数

1 58236U 23171G 25257.93072469 .00000076 00000-0 20721-4 0 9998
2 58236 43.0028 161.2865 0001137 264.8501 95.2211 15.02534759103285
Epoch: Sep 14, 2025 • Age: 30 hours

当前状态

高度 561.9 km
速度 7.58 km/s
星下点 -15.70°S, 62.68°W
发射日期 Nov 8, 2023
运行时间 1.8 years
类型 internet

技术详情

分类 Payload
质量 730.00 kg
干质量 700.00 kg
总质量 730.00 kg
长度 0.30 m
直径 4.10 m
跨度 29.00 m
形状 Box + pan
制造商 SPXS
平台类型 Starlink V2M
阶段状态 In Orbit
所有者/国家 SPXS/US

大型星座

Loading constellations...